Погода Шауляй

Погода Шауляй : погода сейчас, прогноз погоды и архив. Всё, что Вы хотите узнать о погоде Шауляй!

Поиск расширенной информации на нашем сайте:

Другие новости

Новости СМИ2

Главная страница сайта

Новости сайта

03.07.2017

Напоминаем, что на нашем специализированном сайте Метеоцентр.Азия вы можете получить высокодетализированные автоматические прогнозы погоды по пунктам России, СНГ и мира в авиационном формате (включающие направление и скорость ветра, видимость, явления погоды, количество и форму облачности, нижнюю и верхнюю границу облачности).

Рекомендуем: лимузины дешево москва

Погода Шауляй - сегодня

Время (UTC), дата Ветер
(°,м/с) 
Видим.   Явления Облачность Т
(°С)
Тd
(°С)
f(%) Тe
(°С)
Pmin
(гПа)
dP
(гПа)
Po
(мм)
O2
(г/м3)
Тmin Tmax R s Состояние
почвы
09 20.05.18 050 (СВ) 2-4{06}  20000 м    ясно 
+16.9 +5 45 +18  1027.6  0.6  761  288           
12 20.05.18 350 (С) 2-5{07}  20000 м    6/0 верхняя 
[Cs]
+18.7 +3.4 36 +20  1027  -0.5  761  286           
15 20.05.18 050 (СВ) 2-5{08}  20000 м    1/0 верхняя 
[Ci fib]
+19.8 +4.8 37 +21  1026.3  -0.7  760  285           
18 20.05.18 тихо () -2{05}  20000 м    3/0 верхняя 
[Ci fib]
+17.4 +5.9 47 +17  1026.3  -0.1  760  287    +20       
21 20.05.18 тихо () -0{02}  20000 м    1/0 верхняя 
[Ci fib]
+9.9 +7 82 +10  1027.7  1.1  761  295           
00 21.05.18 тихо () -1{02}  20000 м    ясно 
+7.8 +4.3 79 +8  1028.6  0.8  761  298           
03 21.05.18 тихо () -0{02}  20000 м    4/0 верхняя 
[Cs]
+7.1 +5.1 87 +7  1029.1  0.4  762  298           
06 21.05.18 тихо () -1{03}  20000 м    8/0 верхняя 
[Cs]
+14.1 +9.4 73 +14  1029  0.3  762  290  +7.1        влажная 
09 21.05.18 080 (В) 1-4{04}  20000 м    8/1 1000 м верхняя 
[Cu hum|Ci sp]
+19.6 +10.4 55 +22  1028.5  -0.3  762  285           
12 21.05.18 070 (В) 3-7{07}  20000 м    3/0 верхняя 
[Ci fib]
+21.1 +6.8 39 +21  1026.9  -1.5  761  283           
18 21.05.18 тихо () -2{08}  20000 м    ясно 
+19.2 +7 45 +19  1024.6  -0.6  759  285    +21.8       
21 21.05.18 тихо () -0{02}  20000 м    ясно 
+11.1 +8.6 85 +11  1024.6  -0.3  759  292           
00 22.05.18 тихо () -0{00}  17000 м    ясно 
+8.9 +7.8 93 +9  1023.6  -1.1  758  294           
03 22.05.18 тихо () -0{01}  20000 м    8/0 средняя, верхняя 
[Ac lent|Ci sp]
+9.7 +7.8 88 +10  1022.7  -0.8  757  293           
06 22.05.18 190 (Ю) 1-3{03}  20000 м    9/0 средняя 
[Ac As]
+15 +8 63 +16  1022.3  -0.2  757  288  +7.5        влажная 
09 22.05.18 150 (ЮВ) 2-4{04}  20000 м  слаб. ливневой дождь  10/6 1500 м кучево-дожд., средняя 
[Cb cap|Ac As]
+16.2 +10.4 68 +19  1021.7  -0.6  757  286           
12 22.05.18 110 (В) 2-5{06}  20000 м  {ливн. осадки}  8/5 1500 м средняя 
[Sc|Ac As]
+16.8 +9.8 63 +19  1020.9  -0.7  756  285      0.0     
15 22.05.18 120 (ЮВ) 3-7{09}  19000 м    4/3 1500 м верхняя 
[Cu hum|Ci sp]
+18.1 +10.5 61 +21  1019.8  -1.1  755  284           
18 22.05.18 110 (В) 1-3{07}  20000 м    3/0 средняя, верхняя 
[Ac trans|Ci sp]
+16.2 +9.9 66 +19  1019.3  -0.6  755  285    +18.5  0.0     
21 22.05.18 тихо () -1{03}  20000 м    3/0 средняя, верхняя 
[Ac trans|Ci sp]
+11.8 +9.4 85 +12  1019.5  755  290           
00 23.05.18 тихо () -2{02}  16000 м  слаб. ливневой дождь  10/5 1000 м кучево-дожд., средняя 
[Cb cap|Ac As]
+11.5 +10.5 94 +13  1019.5  0.1  755  290      0.3     
03 23.05.18 тихо () -2{02}  20000 м  {ливн. осадки}  10/8 1500 м кучево-дожд., средняя 
[Cb calv|Ac As]
+11.5 -10.7 20 +12  1019.9  0.4  755  293           
06 23.05.18 320 (СЗ) 1-2{04}  18000 м  в посл. час ливневой дождь  9/5 1000 м кучево-дожд., средняя 
[Cb calv|Ac As]
+13.4 +12.3 93 +19  1021.2  1.3  756  288  +10.3      мокрая 
12 23.05.18 030 (СВ) 2-8{08}  18000 м  {ливн. осадки}  8/6 1000 м средняя 
[Cu med, cong|Ac trans]
+19.4 +11.7 61 +23  1022.5  0.4  757  283      0.3     
15 23.05.18 350 (С) 3-7{08}  20000 м    3/1 1000 м средняя 
[Cu med, cong|Ac trans]
+19.4 +10.2 55 +21  1023  0.6  758  283           
Время (UTC), дата Ветер
(°,м/с) 
Видим.   Явления Облачность Т
(°С)
Тd
(°С)
f(%) Тe
(°С)
Pmin
(гПа)
dP
(гПа)
Po
(мм)
O2
(г/м3)
Тmin Tmax R s Состояние
почвы

Для получения пояснительной информации подведите курсор к названию столбца.

ПОГОДА Шауляй - архив

Всё, что Вы хотите узнать о погоде Шауляй - удобно и подробно!

Выберите нужную дату (начиная с 1 января 2015* года) и нажмите кнопку "Найти".
Будут отображены архивные сводки погоды по пункту Шауляй, начиная с указанной даты.


Отображать данные в формате CSV (для использования в таблицах Excel)


Внимание! Наш архив погоды предназначен исключительно для личного некоммерческого использования в познавательных целях. Если Вам необходимы официальные справки о состоянии погоды (для производственных, юридических, коммерческих и т.п. целей), обращайтесь в органы Росгидромета.

*Примечание: данная дата относится к архиву по метеостанциям СССР (Россия, СНГ, Балтия).
Архив по метеостанциям Зарубежной Европы и Азии (кроме Китая) хранится 10 дней, по другим регионам земного шара (Китай, Африка, Америка, Австралия, Океания) - 1 день.

Шауляй - район местоположения метеостанции


Название, широта, долгота, высота метеостанции:
Шауляй 55.9°ш. 23.3°д. 107 м над ур. моря [Литва]

Дополнительная информация

В oтличие oт бoльшинства пoгoдных сайтoв мы публикуем пoдрoбную метеoинфoрмацию в детальнoм прoфессиoнальнoм фoрмате.

Характеристики температуры и влажнoсти вoздуха измеряются на высoте 2 м в тени вдали oт зданий и деревьев.
Скoрoсть ветра измеряется на высoте 10 м (на урoвне рoста челoвека скoрoсть ветра ниже в 1.5-2 раза). Если метеoстанция нахoдится в гoрoде или в лесу, тo скoрoсть ветра занижена на 2-4 м/с пo сравнению с oткрытым местoм. Скoрoсть ветра над акватoриями крупных рек и oзёр, а также на вершинах хoлмoв на 2-5 м/с выше, чем в oбычных услoвиях.
Атмoсфернoе давление в разных тoчках местнoсти мoжет значительнo oтличаться oт давления на метеoстанции, в зависимoсти oт услoвий рельефа (при пoдъёме на 10 м давление пoнижается примернo на 1 мм рт.ст.).